#datetime,building,power
2022-03-27T00:00:00,mcc,48.71
2022-03-27T00:01:00,mcc,47.60
2022-03-27T00:02:00,mcc,47.60
2022-03-27T00:03:00,mcc,47.34
2022-03-27T00:04:00,mcc,46.56
2022-03-27T00:05:00,mcc,46.76
2022-03-27T00:06:00,mcc,56.03
2022-03-27T00:07:00,mcc,47.37
2022-03-27T00:08:00,mcc,45.75
2022-03-27T00:09:00,mcc,46.69
2022-03-27T00:10:00,mcc,44.60
2022-03-27T00:11:00,mcc,45.03
2022-03-27T00:12:00,mcc,48.02
2022-03-27T00:13:00,mcc,44.84
2022-03-27T00:14:00,mcc,45.24
2022-03-27T00:15:00,mcc,48.57
2022-03-27T00:16:00,mcc,45.18
2022-03-27T00:17:00,mcc,48.82
2022-03-27T00:18:00,mcc,49.69
2022-03-27T00:19:00,mcc,48.25
2022-03-27T00:20:00,mcc,47.45
2022-03-27T00:21:00,mcc,47.25
2022-03-27T00:22:00,mcc,45.79
2022-03-27T00:23:00,mcc,44.46
2022-03-27T00:24:00,mcc,52.18
2022-03-27T00:25:00,mcc,43.85
2022-03-27T00:26:00,mcc,43.38
2022-03-27T00:27:00,mcc,43.47
2022-03-27T00:28:00,mcc,43.29
2022-03-27T00:29:00,mcc,42.66
2022-03-27T00:30:00,mcc,43.61
2022-03-27T00:31:00,mcc,43.42
2022-03-27T00:32:00,mcc,42.77
2022-03-27T00:33:00,mcc,43.12
2022-03-27T00:34:00,mcc,43.09
2022-03-27T00:35:00,mcc,43.70
2022-03-27T00:36:00,mcc,44.68
2022-03-27T00:37:00,mcc,46.23
2022-03-27T00:38:00,mcc,45.36
2022-03-27T00:39:00,mcc,45.82
2022-03-27T00:40:00,mcc,46.28
2022-03-27T00:41:00,mcc,44.19
2022-03-27T00:42:00,mcc,50.97
2022-03-27T00:43:00,mcc,41.72
2022-03-27T00:44:00,mcc,40.94
2022-03-27T00:45:00,mcc,44.42
2022-03-27T00:46:00,mcc,38.70
2022-03-27T00:47:00,mcc,38.92
2022-03-27T00:48:00,mcc,38.25
2022-03-27T00:49:00,mcc,39.27
2022-03-27T00:50:00,mcc,41.45
2022-03-27T00:51:00,mcc,39.61
2022-03-27T00:52:00,mcc,39.53
2022-03-27T00:53:00,mcc,38.70
2022-03-27T00:54:00,mcc,39.22
2022-03-27T00:55:00,mcc,40.08
2022-03-27T00:56:00,mcc,39.13
2022-03-27T00:57:00,mcc,37.95
2022-03-27T00:58:00,mcc,39.39
2022-03-27T00:59:00,mcc,40.88
2022-03-27T01:00:00,mcc,38.73
2022-03-27T01:01:00,mcc,37.53
2022-03-27T01:02:00,mcc,38.45
2022-03-27T01:03:00,mcc,35.82
2022-03-27T01:04:00,mcc,38.47
2022-03-27T01:05:00,mcc,41.67
2022-03-27T01:06:00,mcc,39.68
2022-03-27T01:07:00,mcc,41.82
2022-03-27T01:08:00,mcc,45.13
2022-03-27T01:09:00,mcc,42.52
2022-03-27T01:10:00,mcc,43.80
2022-03-27T01:11:00,mcc,41.72
2022-03-27T01:12:00,mcc,41.38
2022-03-27T01:13:00,mcc,39.40
2022-03-27T01:14:00,mcc,38.84
2022-03-27T01:15:00,mcc,41.92
2022-03-27T01:16:00,mcc,42.43
2022-03-27T01:17:00,mcc,41.72
2022-03-27T01:18:00,mcc,41.25
2022-03-27T01:19:00,mcc,49.56
2022-03-27T01:20:00,mcc,43.55
2022-03-27T01:21:00,mcc,41.44
2022-03-27T01:22:00,mcc,40.87
2022-03-27T01:23:00,mcc,44.54
2022-03-27T01:24:00,mcc,41.07
2022-03-27T01:25:00,mcc,40.91
2022-03-27T01:26:00,mcc,44.04
2022-03-27T01:27:00,mcc,41.88
2022-03-27T01:28:00,mcc,41.77
2022-03-27T01:29:00,mcc,44.46
2022-03-27T01:30:00,mcc,41.87
2022-03-27T01:31:00,mcc,44.54
2022-03-27T01:32:00,mcc,47.94
2022-03-27T01:33:00,mcc,42.95
2022-03-27T01:34:00,mcc,43.14
2022-03-27T01:35:00,mcc,43.88
2022-03-27T01:36:00,mcc,41.13
2022-03-27T01:37:00,mcc,49.93
2022-03-27T01:38:00,mcc,44.33
2022-03-27T01:39:00,mcc,44.18
2022-03-27T01:40:00,mcc,42.42
2022-03-27T01:41:00,mcc,43.65
2022-03-27T01:42:00,mcc,41.70
2022-03-27T01:43:00,mcc,42.05
2022-03-27T01:44:00,mcc,44.68
2022-03-27T01:45:00,mcc,45.28
2022-03-27T01:46:00,mcc,43.63
2022-03-27T01:47:00,mcc,43.31
2022-03-27T01:48:00,mcc,40.52
2022-03-27T01:49:00,mcc,39.49
2022-03-27T01:50:00,mcc,41.87
2022-03-27T01:51:00,mcc,39.61
2022-03-27T01:52:00,mcc,39.29
2022-03-27T01:53:00,mcc,42.10
2022-03-27T01:54:00,mcc,40.32
2022-03-27T01:55:00,mcc,56.38
2022-03-27T01:56:00,mcc,50.54
2022-03-27T01:57:00,mcc,41.16
2022-03-27T01:58:00,mcc,40.19
2022-03-27T01:59:00,mcc,41.21
2022-03-27T02:00:00,mcc,39.13
2022-03-27T02:01:00,mcc,38.63
2022-03-27T02:02:00,mcc,41.42
2022-03-27T02:03:00,mcc,38.88
2022-03-27T02:04:00,mcc,39.58
2022-03-27T02:05:00,mcc,42.89
2022-03-27T02:06:00,mcc,40.52
2022-03-27T02:07:00,mcc,38.58
2022-03-27T02:08:00,mcc,39.42
2022-03-27T02:09:00,mcc,37.23
2022-03-27T02:10:00,mcc,36.71
2022-03-27T02:11:00,mcc,38.32
2022-03-27T02:12:00,mcc,36.91
2022-03-27T02:13:00,mcc,38.29
2022-03-27T02:14:00,mcc,40.86
2022-03-27T02:15:00,mcc,39.16
2022-03-27T02:16:00,mcc,38.03
2022-03-27T02:17:00,mcc,39.60
2022-03-27T02:18:00,mcc,38.94
2022-03-27T02:19:00,mcc,38.93
2022-03-27T02:20:00,mcc,41.11
2022-03-27T02:21:00,mcc,36.80
2022-03-27T02:22:00,mcc,37.96
2022-03-27T02:23:00,mcc,39.27
2022-03-27T02:24:00,mcc,37.13
2022-03-27T02:25:00,mcc,37.60
2022-03-27T02:26:00,mcc,40.02
2022-03-27T02:27:00,mcc,36.81
2022-03-27T02:28:00,mcc,40.21
2022-03-27T02:29:00,mcc,43.42
2022-03-27T02:30:00,mcc,40.46
2022-03-27T02:31:00,mcc,39.68
2022-03-27T02:32:00,mcc,47.50
2022-03-27T02:33:00,mcc,38.54
2022-03-27T02:34:00,mcc,38.98
2022-03-27T02:35:00,mcc,38.66
2022-03-27T02:36:00,mcc,37.04
2022-03-27T02:37:00,mcc,36.97
2022-03-27T02:38:00,mcc,39.57
2022-03-27T02:39:00,mcc,37.51
2022-03-27T02:40:00,mcc,38.21
2022-03-27T02:41:00,mcc,39.50
2022-03-27T02:42:00,mcc,38.11
2022-03-27T02:43:00,mcc,37.71
2022-03-27T02:44:00,mcc,37.82
2022-03-27T02:45:00,mcc,35.89
2022-03-27T02:46:00,mcc,35.33
2022-03-27T02:47:00,mcc,41.23
2022-03-27T02:48:00,mcc,39.55
2022-03-27T02:49:00,mcc,38.81
2022-03-27T02:50:00,mcc,41.42
2022-03-27T02:51:00,mcc,39.76
2022-03-27T02:52:00,mcc,40.96
2022-03-27T02:53:00,mcc,43.26
2022-03-27T02:54:00,mcc,38.13
2022-03-27T02:55:00,mcc,39.26
2022-03-27T02:56:00,mcc,40.66
2022-03-27T02:57:00,mcc,39.87
2022-03-27T02:58:00,mcc,39.42
2022-03-27T02:59:00,mcc,41.54
2022-03-27T03:00:00,mcc,39.83
2022-03-27T03:01:00,mcc,38.92
2022-03-27T03:02:00,mcc,40.27
2022-03-27T03:03:00,mcc,38.30
2022-03-27T03:04:00,mcc,37.69
2022-03-27T03:05:00,mcc,39.22
2022-03-27T03:06:00,mcc,36.92
2022-03-27T03:07:00,mcc,37.71
2022-03-27T03:08:00,mcc,40.03
2022-03-27T03:09:00,mcc,46.73
2022-03-27T03:10:00,mcc,37.59
2022-03-27T03:11:00,mcc,50.52
2022-03-27T03:12:00,mcc,49.74
2022-03-27T03:13:00,mcc,48.56
2022-03-27T03:14:00,mcc,48.25
2022-03-27T03:15:00,mcc,38.00
2022-03-27T03:16:00,mcc,40.23
2022-03-27T03:17:00,mcc,40.41
2022-03-27T03:18:00,mcc,39.38
2022-03-27T03:19:00,mcc,39.21
2022-03-27T03:20:00,mcc,41.37
2022-03-27T03:21:00,mcc,38.69
2022-03-27T03:22:00,mcc,36.53
2022-03-27T03:23:00,mcc,42.07
2022-03-27T03:24:00,mcc,38.50
2022-03-27T03:25:00,mcc,37.36
2022-03-27T03:26:00,mcc,39.90
2022-03-27T03:27:00,mcc,40.45
2022-03-27T03:28:00,mcc,48.62
2022-03-27T03:29:00,mcc,42.20
2022-03-27T03:30:00,mcc,39.44
2022-03-27T03:31:00,mcc,37.56
2022-03-27T03:32:00,mcc,37.92
2022-03-27T03:33:00,mcc,36.29
2022-03-27T03:34:00,mcc,37.61
2022-03-27T03:35:00,mcc,39.84
2022-03-27T03:36:00,mcc,38.16
2022-03-27T03:37:00,mcc,38.23
2022-03-27T03:38:00,mcc,41.59
2022-03-27T03:39:00,mcc,37.44
2022-03-27T03:40:00,mcc,36.53
2022-03-27T03:41:00,mcc,39.23
2022-03-27T03:42:00,mcc,37.00
2022-03-27T03:43:00,mcc,38.44
2022-03-27T03:44:00,mcc,41.05
2022-03-27T03:45:00,mcc,40.54
2022-03-27T03:46:00,mcc,39.57
2022-03-27T03:47:00,mcc,48.11
2022-03-27T03:48:00,mcc,40.63
2022-03-27T03:49:00,mcc,39.78
2022-03-27T03:50:00,mcc,38.05
2022-03-27T03:51:00,mcc,38.82
2022-03-27T03:52:00,mcc,39.48
2022-03-27T03:53:00,mcc,39.52
2022-03-27T03:54:00,mcc,39.57
2022-03-27T03:55:00,mcc,39.96
2022-03-27T03:56:00,mcc,38.46
2022-03-27T03:57:00,mcc,37.84
2022-03-27T03:58:00,mcc,37.59
2022-03-27T03:59:00,mcc,35.63
2022-03-27T04:00:00,mcc,35.57
2022-03-27T04:01:00,mcc,36.60
2022-03-27T04:02:00,mcc,39.26
2022-03-27T04:03:00,mcc,37.82
2022-03-27T04:04:00,mcc,37.63
2022-03-27T04:05:00,mcc,50.29
2022-03-27T04:06:00,mcc,39.97
2022-03-27T04:07:00,mcc,35.87
2022-03-27T04:08:00,mcc,38.83
2022-03-27T04:09:00,mcc,35.87
2022-03-27T04:10:00,mcc,38.29
2022-03-27T04:11:00,mcc,49.39
2022-03-27T04:12:00,mcc,45.68
2022-03-27T04:13:00,mcc,46.73
2022-03-27T04:14:00,mcc,49.44
2022-03-27T04:15:00,mcc,38.18
2022-03-27T04:16:00,mcc,38.40
2022-03-27T04:17:00,mcc,37.28
2022-03-27T04:18:00,mcc,39.69
2022-03-27T04:19:00,mcc,42.34
2022-03-27T04:20:00,mcc,41.93
2022-03-27T04:21:00,mcc,41.53
2022-03-27T04:22:00,mcc,42.36
2022-03-27T04:23:00,mcc,44.31
2022-03-27T04:24:00,mcc,50.20
2022-03-27T04:25:00,mcc,44.32
2022-03-27T04:26:00,mcc,41.69
2022-03-27T04:27:00,mcc,40.25
2022-03-27T04:28:00,mcc,39.52
2022-03-27T04:29:00,mcc,39.83
2022-03-27T04:30:00,mcc,38.60
2022-03-27T04:31:00,mcc,39.21
2022-03-27T04:32:00,mcc,38.28
2022-03-27T04:33:00,mcc,37.55
2022-03-27T04:34:00,mcc,38.44
2022-03-27T04:35:00,mcc,40.27
2022-03-27T04:36:00,mcc,39.21
2022-03-27T04:37:00,mcc,39.16
2022-03-27T04:38:00,mcc,43.63
2022-03-27T04:39:00,mcc,41.41
2022-03-27T04:40:00,mcc,38.88
2022-03-27T04:41:00,mcc,39.89
2022-03-27T04:42:00,mcc,43.86
2022-03-27T04:43:00,mcc,35.90
2022-03-27T04:44:00,mcc,38.78
2022-03-27T04:45:00,mcc,36.18
2022-03-27T04:46:00,mcc,37.87
2022-03-27T04:47:00,mcc,39.52
2022-03-27T04:48:00,mcc,38.33
2022-03-27T04:49:00,mcc,38.51
2022-03-27T04:50:00,mcc,38.26
2022-03-27T04:51:00,mcc,39.26
2022-03-27T04:52:00,mcc,42.16
2022-03-27T04:53:00,mcc,41.21
2022-03-27T04:54:00,mcc,40.45
2022-03-27T04:55:00,mcc,37.90
2022-03-27T04:56:00,mcc,36.03
2022-03-27T04:57:00,mcc,34.94
2022-03-27T04:58:00,mcc,36.31
2022-03-27T04:59:00,mcc,37.62
2022-03-27T05:00:00,mcc,45.89
2022-03-27T05:01:00,mcc,39.58
2022-03-27T05:02:00,mcc,40.13
2022-03-27T05:03:00,mcc,39.78
2022-03-27T05:04:00,mcc,40.01
2022-03-27T05:05:00,mcc,42.14
2022-03-27T05:06:00,mcc,40.23
2022-03-27T05:07:00,mcc,39.72
2022-03-27T05:08:00,mcc,41.96
2022-03-27T05:09:00,mcc,36.60
2022-03-27T05:10:00,mcc,36.76
2022-03-27T05:11:00,mcc,38.90
2022-03-27T05:12:00,mcc,35.96
2022-03-27T05:13:00,mcc,35.66
2022-03-27T05:14:00,mcc,38.59
2022-03-27T05:15:00,mcc,39.61
2022-03-27T05:16:00,mcc,39.66
2022-03-27T05:17:00,mcc,39.41
2022-03-27T05:18:00,mcc,39.03
2022-03-27T05:19:00,mcc,38.75
2022-03-27T05:20:00,mcc,38.20
2022-03-27T05:21:00,mcc,39.62
2022-03-27T05:22:00,mcc,39.15
2022-03-27T05:23:00,mcc,41.02
2022-03-27T05:24:00,mcc,38.19
2022-03-27T05:25:00,mcc,35.53
2022-03-27T05:26:00,mcc,37.20
2022-03-27T05:27:00,mcc,35.01
2022-03-27T05:28:00,mcc,35.00
2022-03-27T05:29:00,mcc,38.79
2022-03-27T05:30:00,mcc,39.92
2022-03-27T05:31:00,mcc,41.01
2022-03-27T05:32:00,mcc,41.95
2022-03-27T05:33:00,mcc,39.11
2022-03-27T05:34:00,mcc,38.45
2022-03-27T05:35:00,mcc,41.38
2022-03-27T05:36:00,mcc,46.60
2022-03-27T05:37:00,mcc,39.23
2022-03-27T05:38:00,mcc,42.91
2022-03-27T05:39:00,mcc,40.98
2022-03-27T05:40:00,mcc,38.75
2022-03-27T05:41:00,mcc,41.21
2022-03-27T05:42:00,mcc,38.36
2022-03-27T05:43:00,mcc,40.74
2022-03-27T05:44:00,mcc,41.83
2022-03-27T05:45:00,mcc,39.45
2022-03-27T05:46:00,mcc,39.57
2022-03-27T05:47:00,mcc,37.21
2022-03-27T05:48:00,mcc,35.51
2022-03-27T05:49:00,mcc,36.80
2022-03-27T05:50:00,mcc,36.81
2022-03-27T05:51:00,mcc,35.52
2022-03-27T05:52:00,mcc,35.88
2022-03-27T05:53:00,mcc,36.37
2022-03-27T05:54:00,mcc,36.99
2022-03-27T05:55:00,mcc,38.15
2022-03-27T05:56:00,mcc,36.44
2022-03-27T05:57:00,mcc,35.20
2022-03-27T05:58:00,mcc,35.95
2022-03-27T05:59:00,mcc,39.20
2022-03-27T06:00:00,mcc,38.73
2022-03-27T06:01:00,mcc,38.37
2022-03-27T06:02:00,mcc,39.30
2022-03-27T06:03:00,mcc,39.69
2022-03-27T06:04:00,mcc,38.29
2022-03-27T06:05:00,mcc,41.17
2022-03-27T06:06:00,mcc,39.10
2022-03-27T06:07:00,mcc,38.95
2022-03-27T06:08:00,mcc,40.99
2022-03-27T06:09:00,mcc,37.63
2022-03-27T06:10:00,mcc,40.08
2022-03-27T06:11:00,mcc,43.94
2022-03-27T06:12:00,mcc,49.98
2022-03-27T06:13:00,mcc,43.47
2022-03-27T06:14:00,mcc,43.99
2022-03-27T06:15:00,mcc,40.24
2022-03-27T06:16:00,mcc,39.68
2022-03-27T06:17:00,mcc,38.60
2022-03-27T06:18:00,mcc,40.12
2022-03-27T06:19:00,mcc,38.72
2022-03-27T06:20:00,mcc,43.11
2022-03-27T06:21:00,mcc,39.64
2022-03-27T06:22:00,mcc,39.33
2022-03-27T06:23:00,mcc,42.74
2022-03-27T06:24:00,mcc,39.80
2022-03-27T06:25:00,mcc,40.87
2022-03-27T06:26:00,mcc,41.68
2022-03-27T06:27:00,mcc,38.80
2022-03-27T06:28:00,mcc,41.00
2022-03-27T06:29:00,mcc,40.10
2022-03-27T06:30:00,mcc,37.45
2022-03-27T06:31:00,mcc,37.32
2022-03-27T06:32:00,mcc,47.21
2022-03-27T06:33:00,mcc,36.87
2022-03-27T06:34:00,mcc,38.09
2022-03-27T06:35:00,mcc,41.43
2022-03-27T06:36:00,mcc,38.64
2022-03-27T06:37:00,mcc,38.22
2022-03-27T06:38:00,mcc,40.30
2022-03-27T06:39:00,mcc,38.54
2022-03-27T06:40:00,mcc,39.06
2022-03-27T06:41:00,mcc,39.57
2022-03-27T06:42:00,mcc,35.68
2022-03-27T06:43:00,mcc,36.75
2022-03-27T06:44:00,mcc,39.84
2022-03-27T06:45:00,mcc,39.68
2022-03-27T06:46:00,mcc,39.37
2022-03-27T06:47:00,mcc,39.61
2022-03-27T06:48:00,mcc,37.90
2022-03-27T06:49:00,mcc,34.88
2022-03-27T06:50:00,mcc,44.85
2022-03-27T06:51:00,mcc,34.86
2022-03-27T06:52:00,mcc,36.75
2022-03-27T06:53:00,mcc,39.14
2022-03-27T06:54:00,mcc,35.53
2022-03-27T06:55:00,mcc,36.32
2022-03-27T06:56:00,mcc,39.59
2022-03-27T06:57:00,mcc,37.93
2022-03-27T06:58:00,mcc,38.33
2022-03-27T06:59:00,mcc,39.98
2022-03-27T07:00:00,mcc,37.66
2022-03-27T07:01:00,mcc,38.77
2022-03-27T07:02:00,mcc,38.71
2022-03-27T07:03:00,mcc,36.22
2022-03-27T07:04:00,mcc,37.49
2022-03-27T07:05:00,mcc,39.05
2022-03-27T07:06:00,mcc,38.39
2022-03-27T07:07:00,mcc,39.60
2022-03-27T07:08:00,mcc,50.42
2022-03-27T07:09:00,mcc,39.73
2022-03-27T07:10:00,mcc,37.12
2022-03-27T07:11:00,mcc,38.40
2022-03-27T07:12:00,mcc,36.76
2022-03-27T07:13:00,mcc,36.65
2022-03-27T07:14:00,mcc,37.06
2022-03-27T07:15:00,mcc,34.16
2022-03-27T07:16:00,mcc,36.48
2022-03-27T07:17:00,mcc,38.36
2022-03-27T07:18:00,mcc,36.88
2022-03-27T07:19:00,mcc,35.86
2022-03-27T07:20:00,mcc,38.91
2022-03-27T07:21:00,mcc,47.28
2022-03-27T07:22:00,mcc,46.74
2022-03-27T07:23:00,mcc,46.52
2022-03-27T07:24:00,mcc,45.09
2022-03-27T07:25:00,mcc,38.51
2022-03-27T07:26:00,mcc,49.43
2022-03-27T07:27:00,mcc,37.01
2022-03-27T07:28:00,mcc,40.46
2022-03-27T07:29:00,mcc,41.56
2022-03-27T07:30:00,mcc,38.63
2022-03-27T07:31:00,mcc,42.66
2022-03-27T07:32:00,mcc,43.28
2022-03-27T07:33:00,mcc,42.51
2022-03-27T07:34:00,mcc,42.21
2022-03-27T07:35:00,mcc,43.66
2022-03-27T07:36:00,mcc,40.43
2022-03-27T07:37:00,mcc,41.31
2022-03-27T07:38:00,mcc,43.50
2022-03-27T07:39:00,mcc,44.62
2022-03-27T07:40:00,mcc,45.36
2022-03-27T07:41:00,mcc,47.56
2022-03-27T07:42:00,mcc,42.17
2022-03-27T07:43:00,mcc,39.37
2022-03-27T07:44:00,mcc,48.34
2022-03-27T07:45:00,mcc,39.92
2022-03-27T07:46:00,mcc,40.25
2022-03-27T07:47:00,mcc,42.23
2022-03-27T07:48:00,mcc,41.41
2022-03-27T07:49:00,mcc,42.41
2022-03-27T07:50:00,mcc,46.06
2022-03-27T07:51:00,mcc,41.63
2022-03-27T07:52:00,mcc,43.62
2022-03-27T07:53:00,mcc,45.65
2022-03-27T07:54:00,mcc,42.66
2022-03-27T07:55:00,mcc,43.39
2022-03-27T07:56:00,mcc,44.23
2022-03-27T07:57:00,mcc,43.68
2022-03-27T07:58:00,mcc,42.97
2022-03-27T07:59:00,mcc,43.71
2022-03-27T08:00:00,mcc,40.90
2022-03-27T08:01:00,mcc,43.35
2022-03-27T08:02:00,mcc,47.50
2022-03-27T08:03:00,mcc,44.02
2022-03-27T08:04:00,mcc,43.78
2022-03-27T08:05:00,mcc,45.60
2022-03-27T08:06:00,mcc,47.23
2022-03-27T08:07:00,mcc,43.48
2022-03-27T08:08:00,mcc,44.87
2022-03-27T08:09:00,mcc,41.80
2022-03-27T08:10:00,mcc,40.25
2022-03-27T08:11:00,mcc,42.45
2022-03-27T08:12:00,mcc,42.51
2022-03-27T08:13:00,mcc,43.50
2022-03-27T08:14:00,mcc,54.26
2022-03-27T08:15:00,mcc,51.59
2022-03-27T08:16:00,mcc,50.19
2022-03-27T08:17:00,mcc,51.73
2022-03-27T08:18:00,mcc,50.74
2022-03-27T08:19:00,mcc,52.71
2022-03-27T08:20:00,mcc,62.44
2022-03-27T08:21:00,mcc,52.43
2022-03-27T08:22:00,mcc,52.72
2022-03-27T08:23:00,mcc,55.57
2022-03-27T08:24:00,mcc,52.36
2022-03-27T08:25:00,mcc,52.06
2022-03-27T08:26:00,mcc,54.14
2022-03-27T08:27:00,mcc,49.96
2022-03-27T08:28:00,mcc,51.06
2022-03-27T08:29:00,mcc,60.42
2022-03-27T08:30:00,mcc,59.58
2022-03-27T08:31:00,mcc,61.04
2022-03-27T08:32:00,mcc,59.60
2022-03-27T08:33:00,mcc,52.09
2022-03-27T08:34:00,mcc,52.03
2022-03-27T08:35:00,mcc,53.67
2022-03-27T08:36:00,mcc,52.98
2022-03-27T08:37:00,mcc,51.35
2022-03-27T08:38:00,mcc,54.73
2022-03-27T08:39:00,mcc,51.66
2022-03-27T08:40:00,mcc,49.86
2022-03-27T08:41:00,mcc,51.48
2022-03-27T08:42:00,mcc,48.17
2022-03-27T08:43:00,mcc,49.89
2022-03-27T08:44:00,mcc,52.48
2022-03-27T08:45:00,mcc,52.44
2022-03-27T08:46:00,mcc,55.62
2022-03-27T08:47:00,mcc,53.83
2022-03-27T08:48:00,mcc,50.04
2022-03-27T08:49:00,mcc,50.15
2022-03-27T08:50:00,mcc,51.44
2022-03-27T08:51:00,mcc,48.88
2022-03-27T08:52:00,mcc,48.37
2022-03-27T08:53:00,mcc,52.02
2022-03-27T08:54:00,mcc,50.76
2022-03-27T08:55:00,mcc,50.37
2022-03-27T08:56:00,mcc,52.90
2022-03-27T08:57:00,mcc,52.19
2022-03-27T08:58:00,mcc,50.23
2022-03-27T08:59:00,mcc,53.03
2022-03-27T09:00:00,mcc,50.48
2022-03-27T09:01:00,mcc,51.80
2022-03-27T09:02:00,mcc,52.86
2022-03-27T09:03:00,mcc,49.97
2022-03-27T09:04:00,mcc,49.00
2022-03-27T09:05:00,mcc,52.35
2022-03-27T09:06:00,mcc,50.57
2022-03-27T09:07:00,mcc,48.87
2022-03-27T09:08:00,mcc,50.21
2022-03-27T09:09:00,mcc,49.13
2022-03-27T09:10:00,mcc,50.71
2022-03-27T09:11:00,mcc,50.83
2022-03-27T09:12:00,mcc,49.66
2022-03-27T09:13:00,mcc,49.79
2022-03-27T09:14:00,mcc,52.33
2022-03-27T09:15:00,mcc,52.43
2022-03-27T09:16:00,mcc,54.71
2022-03-27T09:17:00,mcc,54.00
2022-03-27T09:18:00,mcc,49.74
2022-03-27T09:19:00,mcc,48.82
2022-03-27T09:20:00,mcc,52.08
2022-03-27T09:21:00,mcc,49.56
2022-03-27T09:22:00,mcc,48.63
2022-03-27T09:23:00,mcc,50.49
2022-03-27T09:24:00,mcc,50.41
2022-03-27T09:25:00,mcc,53.12
2022-03-27T09:26:00,mcc,52.85
2022-03-27T09:27:00,mcc,49.97
2022-03-27T09:28:00,mcc,49.25
2022-03-27T09:29:00,mcc,53.04
2022-03-27T09:30:00,mcc,50.17
2022-03-27T09:31:00,mcc,52.61
2022-03-27T09:32:00,mcc,54.39
2022-03-27T09:33:00,mcc,50.88
2022-03-27T09:34:00,mcc,59.16
2022-03-27T09:35:00,mcc,54.53
2022-03-27T09:36:00,mcc,52.61
2022-03-27T09:37:00,mcc,52.11
2022-03-27T09:38:00,mcc,53.89
2022-03-27T09:39:00,mcc,52.59
2022-03-27T09:40:00,mcc,50.55
2022-03-27T09:41:00,mcc,50.76
2022-03-27T09:42:00,mcc,49.24
2022-03-27T09:43:00,mcc,47.45
2022-03-27T09:44:00,mcc,50.22
2022-03-27T09:45:00,mcc,48.11
2022-03-27T09:46:00,mcc,47.90
2022-03-27T09:47:00,mcc,52.61
2022-03-27T09:48:00,mcc,49.84
2022-03-27T09:49:00,mcc,49.82
2022-03-27T09:50:00,mcc,50.82
2022-03-27T09:51:00,mcc,49.24
2022-03-27T09:52:00,mcc,57.55
2022-03-27T09:53:00,mcc,51.75
2022-03-27T09:54:00,mcc,50.85
2022-03-27T09:55:00,mcc,54.60
2022-03-27T09:56:00,mcc,54.32
2022-03-27T09:57:00,mcc,48.96
2022-03-27T09:58:00,mcc,48.18
2022-03-27T09:59:00,mcc,49.76
2022-03-27T10:00:00,mcc,45.94
2022-03-27T10:01:00,mcc,47.47
2022-03-27T10:02:00,mcc,52.67
2022-03-27T10:03:00,mcc,52.25
2022-03-27T10:04:00,mcc,52.38
2022-03-27T10:05:00,mcc,53.93
2022-03-27T10:06:00,mcc,50.76
2022-03-27T10:07:00,mcc,50.75
2022-03-27T10:08:00,mcc,53.51
2022-03-27T10:09:00,mcc,50.13
2022-03-27T10:10:00,mcc,57.67
2022-03-27T10:11:00,mcc,51.90
2022-03-27T10:12:00,mcc,51.00
2022-03-27T10:13:00,mcc,51.03
2022-03-27T10:14:00,mcc,52.20
2022-03-27T10:15:00,mcc,48.66
2022-03-27T10:16:00,mcc,49.18
2022-03-27T10:17:00,mcc,50.25
2022-03-27T10:18:00,mcc,48.56
2022-03-27T10:19:00,mcc,49.79
2022-03-27T10:20:00,mcc,54.90
2022-03-27T10:21:00,mcc,52.87
2022-03-27T10:22:00,mcc,50.12
2022-03-27T10:23:00,mcc,51.82
2022-03-27T10:24:00,mcc,49.02
2022-03-27T10:25:00,mcc,48.95
2022-03-27T10:26:00,mcc,52.72
2022-03-27T10:27:00,mcc,51.62
2022-03-27T10:28:00,mcc,52.20
2022-03-27T10:29:00,mcc,62.21
2022-03-27T10:30:00,mcc,51.85
2022-03-27T10:31:00,mcc,51.37
2022-03-27T10:32:00,mcc,53.23
2022-03-27T10:33:00,mcc,49.84
2022-03-27T10:34:00,mcc,49.41
2022-03-27T10:35:00,mcc,50.55
2022-03-27T10:36:00,mcc,49.51
2022-03-27T10:37:00,mcc,48.94
2022-03-27T10:38:00,mcc,51.52
2022-03-27T10:39:00,mcc,49.42
2022-03-27T10:40:00,mcc,48.35
2022-03-27T10:41:00,mcc,48.38
2022-03-27T10:42:00,mcc,49.73
2022-03-27T10:43:00,mcc,50.28
2022-03-27T10:44:00,mcc,52.31
2022-03-27T10:45:00,mcc,48.53
2022-03-27T10:46:00,mcc,48.94
2022-03-27T10:47:00,mcc,53.05
2022-03-27T10:48:00,mcc,58.81
2022-03-27T10:49:00,mcc,49.58
2022-03-27T10:50:00,mcc,53.64
2022-03-27T10:51:00,mcc,52.09
2022-03-27T10:52:00,mcc,52.72
2022-03-27T10:53:00,mcc,54.61
2022-03-27T10:54:00,mcc,54.26
2022-03-27T10:55:00,mcc,52.87
2022-03-27T10:56:00,mcc,54.76
2022-03-27T10:57:00,mcc,52.02
2022-03-27T10:58:00,mcc,51.83
2022-03-27T10:59:00,mcc,51.95
2022-03-27T11:00:00,mcc,49.86
2022-03-27T11:01:00,mcc,49.53
2022-03-27T11:02:00,mcc,51.05
2022-03-27T11:03:00,mcc,48.42
2022-03-27T11:04:00,mcc,49.00
2022-03-27T11:05:00,mcc,53.05
2022-03-27T11:06:00,mcc,59.49
2022-03-27T11:07:00,mcc,48.60
2022-03-27T11:08:00,mcc,47.45
2022-03-27T11:09:00,mcc,47.86
2022-03-27T11:10:00,mcc,47.30
2022-03-27T11:11:00,mcc,49.34
2022-03-27T11:12:00,mcc,52.80
2022-03-27T11:13:00,mcc,52.85
2022-03-27T11:14:00,mcc,50.71
2022-03-27T11:15:00,mcc,51.31
2022-03-27T11:16:00,mcc,50.61
2022-03-27T11:17:00,mcc,49.57
2022-03-27T11:18:00,mcc,50.16
2022-03-27T11:19:00,mcc,52.03
2022-03-27T11:20:00,mcc,52.50
2022-03-27T11:21:00,mcc,54.76
2022-03-27T11:22:00,mcc,55.27
2022-03-27T11:23:00,mcc,55.52
2022-03-27T11:24:00,mcc,62.08
2022-03-27T11:25:00,mcc,53.32
2022-03-27T11:26:00,mcc,53.28
2022-03-27T11:27:00,mcc,48.69
2022-03-27T11:28:00,mcc,50.49
2022-03-27T11:29:00,mcc,49.01
2022-03-27T11:30:00,mcc,48.05
2022-03-27T11:31:00,mcc,50.34
2022-03-27T11:32:00,mcc,49.80
2022-03-27T11:33:00,mcc,48.74
2022-03-27T11:34:00,mcc,48.07
2022-03-27T11:35:00,mcc,47.51
2022-03-27T11:36:00,mcc,61.17
2022-03-27T11:37:00,mcc,61.12
2022-03-27T11:38:00,mcc,59.83
2022-03-27T11:39:00,mcc,59.71
2022-03-27T11:40:00,mcc,47.62
2022-03-27T11:41:00,mcc,49.68
2022-03-27T11:42:00,mcc,50.72
2022-03-27T11:43:00,mcc,51.84
2022-03-27T11:44:00,mcc,50.81
2022-03-27T11:45:00,mcc,50.72
2022-03-27T11:46:00,mcc,53.55
2022-03-27T11:47:00,mcc,53.01
2022-03-27T11:48:00,mcc,53.67
2022-03-27T11:49:00,mcc,55.81
2022-03-27T11:50:00,mcc,56.16
2022-03-27T11:51:00,mcc,52.44
2022-03-27T11:52:00,mcc,54.73
2022-03-27T11:53:00,mcc,52.30
2022-03-27T11:54:00,mcc,50.32
2022-03-27T11:55:00,mcc,49.46
2022-03-27T11:56:00,mcc,49.17
2022-03-27T11:57:00,mcc,51.39
2022-03-27T11:58:00,mcc,59.53
2022-03-27T11:59:00,mcc,53.48
2022-03-27T12:00:00,mcc,61.91
2022-03-27T12:01:00,mcc,55.54
2022-03-27T12:02:00,mcc,52.87
2022-03-27T12:03:00,mcc,55.43
2022-03-27T12:04:00,mcc,59.44
2022-03-27T12:05:00,mcc,57.39
2022-03-27T12:06:00,mcc,56.00
2022-03-27T12:07:00,mcc,57.48
2022-03-27T12:08:00,mcc,54.77
2022-03-27T12:09:00,mcc,53.54
2022-03-27T12:10:00,mcc,56.28
2022-03-27T12:11:00,mcc,54.77
2022-03-27T12:12:00,mcc,55.52
2022-03-27T12:13:00,mcc,59.15
2022-03-27T12:14:00,mcc,56.38
2022-03-27T12:15:00,mcc,58.03
2022-03-27T12:16:00,mcc,60.36
2022-03-27T12:17:00,mcc,50.68
2022-03-27T12:18:00,mcc,58.60
2022-03-27T12:19:00,mcc,54.97
2022-03-27T12:20:00,mcc,51.84
2022-03-27T12:21:00,mcc,56.46
2022-03-27T12:22:00,mcc,57.89
2022-03-27T12:23:00,mcc,55.95
2022-03-27T12:24:00,mcc,54.39
2022-03-27T12:25:00,mcc,55.52
2022-03-27T12:26:00,mcc,54.52
2022-03-27T12:27:00,mcc,53.06
2022-03-27T12:28:00,mcc,55.46
2022-03-27T12:29:00,mcc,53.93
2022-03-27T12:30:00,mcc,53.24
2022-03-27T12:31:00,mcc,58.82
2022-03-27T12:32:00,mcc,54.73
2022-03-27T12:33:00,mcc,55.72
2022-03-27T12:34:00,mcc,56.14
2022-03-27T12:35:00,mcc,54.58
2022-03-27T12:36:00,mcc,53.28
2022-03-27T12:37:00,mcc,57.22
2022-03-27T12:38:00,mcc,56.31
2022-03-27T12:39:00,mcc,56.97
2022-03-27T12:40:00,mcc,57.55
2022-03-27T12:41:00,mcc,53.77
2022-03-27T12:42:00,mcc,53.21
2022-03-27T12:43:00,mcc,53.28
2022-03-27T12:44:00,mcc,51.90
2022-03-27T12:45:00,mcc,52.44
2022-03-27T12:46:00,mcc,51.37
2022-03-27T12:47:00,mcc,48.09
2022-03-27T12:48:00,mcc,48.86
2022-03-27T12:49:00,mcc,48.90
2022-03-27T12:50:00,mcc,51.23
2022-03-27T12:51:00,mcc,49.79
2022-03-27T12:52:00,mcc,50.38
2022-03-27T12:53:00,mcc,52.30
2022-03-27T12:54:00,mcc,52.59
2022-03-27T12:55:00,mcc,61.29
2022-03-27T12:56:00,mcc,50.71
2022-03-27T12:57:00,mcc,51.98
2022-03-27T12:58:00,mcc,53.09
2022-03-27T12:59:00,mcc,50.66
2022-03-27T13:00:00,mcc,51.30
2022-03-27T13:01:00,mcc,55.99
2022-03-27T13:02:00,mcc,54.18
2022-03-27T13:03:00,mcc,52.88
2022-03-27T13:04:00,mcc,53.73
2022-03-27T13:05:00,mcc,54.32
2022-03-27T13:06:00,mcc,53.65
2022-03-27T13:07:00,mcc,55.03
2022-03-27T13:08:00,mcc,53.92
2022-03-27T13:09:00,mcc,55.88
2022-03-27T13:10:00,mcc,56.00
2022-03-27T13:11:00,mcc,54.45
2022-03-27T13:12:00,mcc,54.11
2022-03-27T13:13:00,mcc,59.74
2022-03-27T13:14:00,mcc,51.64
2022-03-27T13:15:00,mcc,53.24
2022-03-27T13:16:00,mcc,52.21
2022-03-27T13:17:00,mcc,53.87
2022-03-27T13:18:00,mcc,54.77